Location: Kalberh�ni
(46.4610°N, 7.2453°E)
Time: 14:46:03
(UTC+00:00)

Lacrosse 4 Rocket - Pass Details

Date: 20 October 2021
Orbit: 537 x 619 km, 68.0° (Epoch: 04 December)

Event Time Altitude Azimuth Distance (km) Brightness Sun altitude
Rises 17:09:51 0° 339° (NNW) 2,790 5.1 -6.7°
Reaches altitude 10° 17:12:54 10° 3° (N) 1,907 4.0 -7.2°
Maximum altitude 17:15:27 15° 40° (NE) 1,606 3.3 -7.6°
Enters shadow 17:18:00 10° 76° (ENE) 1,930 3.4 -8.0°
